[[{"header":{"parameterUnit":"m.s-1","parameterCategory":1,"la1":30.2991,"la2":30.254,"lo1":-89.0895,"lo2":-89.0444,"dy":0.0017,"dx":0.0017,"nx":28,"ny":28,"refTime":"2024-05-18T21:00:00:Z","depth":0,"parameterNumber":2,"parameterNumberName":"U-component_of_WINDS"},"data":[0,0,0,0,0,0,0,0,0,0,0,0,0,0,0,0,0,0,0,0,0,0,0,0,0,0,0,0,0,0,0,0,0,0,0,0,0,0,0,0,0,0,0,0,0,0,0,0,0,0,0,0,0,0,0,0,0,0,0.6493,0.6494,0,0.6612,0.6613,0.6614,0.662,0.6619,0.6617,0.6616,0.6742,0.6747,0.6751,0,0,0,0,0,0,0,0,0,0,0,0,0,0.6274,0.6278,0.6493,0.6494,0.6496,0.6612,0.6613,0.6615,0.6621,0.6619,0.6617,0.6615,0.674,0.6746,0.6752,0,0,0,0,0,0,0,0,0,0,0,0,0,0.6379,0.6279,0.6492,0.6512,0.6515,0.6611,0.6613,0.6615,0.6621,0.6619,0.6617,0.6615,0.6739,0.6745,0.6752,0.6838,0,0,0.6774,0.6777,0,0,0,0,0,0,0,0,0.6373,0.6387,0.6508,0.6511,0.6515,0.6599,0.6582,0.669,0.6621,0.6581,0.6616,0.6614,0.6696,0.6707,0.6734,0.6843,0.6849,0.6774,0.6779,0.6782,0.6784,0,0,0,0,0,0,0,0.6365,0.6382,0.654,0.651,0.6514,0.6517,0.6529,0.6603,0.6649,0.6584,0.6585,0.6599,0.6698,0.6727,0.6737,0.6851,0.6774,0.678,0.6785,0.6787,0.7038,0.7041,0,0,0,0,0,0,0.6354,0.6375,0.6536,0.6543,0.6437,0.6522,0.6536,0.6574,0.6648,0.6658,0.66,0.6599,0.6716,0.6729,0.6741,0.6848,0.6781,0.6788,0.6792,0.7036,0.7039,0.7041,0,0,0,0,0,0,0.6349,0.6368,0.6531,0.646,0.6481,0.6528,0.6571,0.6578,0.6607,0.666,0.6669,0.6622,0.6715,0.6731,0.6814,0.6852,0.6791,0.6798,0.7033,0.7037,0.704,0.706,0,0,0,0,0,0,0.6343,0.6366,0.6398,0.646,0.6484,0.6601,0.6573,0.6581,0.6618,0.6617,0.6683,0.6692,0.6715,0.6803,0.6821,0.6861,0.6803,0.703,0.7034,0.7039,0.7056,0.7064,0.7071,0,0,0,0,0,0.6335,0.64,0.64,0.6419,0.6525,0.6603,0.6617,0.6641,0.6621,0.6655,0.6689,0.6689,0.6844,0.6812,0.6831,0.6874,0.7027,0.7033,0.7039,0.7053,0.7063,0.7071,0,0,0,0,0,0,0.6342,0.6408,0.6409,0.6496,0.6544,0.6604,0.6647,0.665,0.6706,0.6702,0.6731,0.6746,0.6828,0.6859,0.6821,0.6961,0.6934,0.6944,0.6938,0.6948,0.6955,0.6947,0.6809,0,0,0,0,0,0.6354,0.641,0.6465,0.6536,0.656,0.6599,0.6634,0.6648,0.6699,0.672,0.6761,0.6811,0.6872,0.6911,0.6969,0.706,0.7075,0.7099,0.7106,0.7112,0.7121,0.7173,0.7184,0.706,0.706,0.7059,0,0,0.6379,0.6421,0.6456,0.6539,0.6578,0.6637,0.6616,0.6679,0.6724,0.673,0.6811,0.6842,0.69,0.6988,0.7028,0.7016,0.7158,0.7119,0.7123,0.7129,0.718,0.7191,0.7202,0.7063,0.7063,0.7062,0,0,0.6455,0.6492,0.6556,0.6595,0.6653,0.6679,0.6694,0.6754,0.6775,0.6856,0.6862,0.6915,0.7018,0.706,0.7095,0.7186,0.7189,0.7204,0.7243,0.7294,0.7303,0.7312,0.7347,0.7359,0.7213,0.7213,0.7213,0,0.6479,0.6567,0.6589,0.6653,0.669,0.6696,0.6762,0.6799,0.6874,0.6901,0.6885,0.7015,0.7054,0.7153,0.7175,0.7202,0.7222,0.7199,0.73,0.7309,0.7318,0.7351,0.7364,0.7214,0.7214,0.7214,0.7214,0,0.6595,0.6656,0.6701,0.6773,0.6815,0.6879,0.6912,0.6952,0.6962,0.699,0.7073,0.712,0.7189,0.7213,0.7224,0.7313,0.7304,0.7294,0.7268,0.7331,0.7363,0.7376,0.7217,0.7216,0.7216,0.7215,0,0,0.6681,0.6763,0.678,0.6813,0.6877,0.6926,0.6991,0.7057,0.7092,0.7143,0.72,0.7286,0.7277,0.7317,0.7332,0.7376,0.7448,0.7361,0.7363,0.7378,0.7552,0.756,0.7575,0.7449,0.7451,0.7453,0.7547,0,0.6767,0.6882,0.6903,0.7004,0.7062,0.7069,0.7126,0.7172,0.7199,0.7253,0.7283,0.7345,0.7328,0.7352,0.7395,0.743,0.7484,0.7423,0.7504,0.7507,0.7492,0.7591,0.7601,0.7687,0.756,0.7562,0.7563,0,0.6882,0.6935,0.7042,0.71,0.7125,0.7175,0.7238,0.7289,0.7342,0.7359,0.7402,0.7413,0.7482,0.745,0.7548,0.7506,0.754,0.7562,0.7566,0.7577,0.7541,0.7607,0.7715,0.7729,0.7583,0.7581,0.758,0,0.6937,0.7036,0.7113,0.714,0.7209,0.7245,0.7275,0.7326,0.7364,0.7419,0.7445,0.7507,0.7542,0.759,0.7618,0.7592,0.7714,0.7684,0.7732,0.7731,0.7759,0.7758,0.7877,0.7777,0.7777,0.7776,0.7776,0,0.7032,0.7098,0.7139,0.7186,0.726,0.7284,0.7357,0.7387,0.7432,0.7487,0.7495,0.7547,0.7579,0.7635,0.7657,0.7735,0.775,0.7767,0.7772,0.7768,0.7766,0.7793,0.7788,0.778,0.7779,0.7778,0.7778,0,0.7108,0.7137,0.7222,0.7279,0.7295,0.7348,0.7398,0.7445,0.7471,0.754,0.7558,0.76,0.7666,0.7697,0.778,0.7795,0.7884,0.7884,0.7866,0.7869,0.7916,0.7912,0.8059,0.808,0.7963,0.7964,0.7965,0,0.7167,0.7218,0.7281,0.7317,0.7348,0.7407,0.7446,0.7472,0.7512,0.7577,0.7617,0.7683,0.7738,0.7844,0.7883,0.7946,0.795,0.7997,0.796,0.7954,0.7953,0.7951,0.7957,0.8004,0.8005,0.8006,0.8007,0,0.7271,0.7283,0.7339,0.74,0.7446,0.7496,0.7544,0.7574,0.7607,0.7653,0.772,0.7763,0.7846,0.7913,0.7979,0.8012,0.8016,0.8018,0.8033,0.803,0.8018,0.8028,0.7887,0.8015,0.8014,0.8014,0.8013,0.8013,0.7343,0.7389,0.744,0.7502,0.7541,0.7586,0.7633,0.7665,0.7722,0.7792,0.7803,0.7875,0.7928,0.8016,0.8051,0.8109,0.8098,0.8119,0.8125,0.8131,0.8134,0.8006,0.8121,0.8121,0.812,0.812,0.812,0,0.7449,0.7482,0.7539,0.7606,0.7655,0.7652,0.7706,0.7748,0.7811,0.7859,0.7913,0.7991,0.8055,0.8098,0.8164,0.8202,0.8206,0.8219,0.8218,0.8226,0.8139,0.8121,0.8215,0.8215,0.8215,0.8215,0.8215,0.8215,0.7511,0.7589,0.7607,0.7704,0.7737,0.7808,0.7839,0.7881,0.7919,0.8006,0.8059,0.8086,0.8133,0.8202,0.8262,0.8273,0.8298,0.8311,0.8322,0.8241,0.8232,0.8222,0.8205,0.8316,0.8316,0.8405,0.8405,0.8406]},{"header":{"parameterUnit":"m.s-1","parameterCategory":1,"la1":30.2991,"la2":30.254,"lo1":-89.0895,"lo2":-89.0444,"dy":0.0017,"dx":0.0017,"nx":28,"ny":28,"refTime":"2024-05-18T21:00:00:Z","depth":0,"parameterNumber":3,"parameterNumberName":"V-component_of_WINDS"},"data":[0,0,0,0,0,0,0,0,0,0,0,0,0,0,0,0,0,0,0,0,0,0,0,0,0,0,0,0,0,0,0,0,0,0,0,0,0,0,0,0,0,0,0,0,0,0,0,0,0,0,0,0,0,0,0,0,0,0,0.8899,0.89,0,0.9,0.9001,0.9002,0.8961,0.8959,0.8956,0.8954,0.9056,0.9061,0.9066,0,0,0,0,0,0,0,0,0,0,0,0,0,0.8667,0.8671,0.8899,0.89,0.8902,0.9,0.9001,0.9002,0.8962,0.8959,0.8956,0.8953,0.9055,0.9061,0.9066,0,0,0,0,0,0,0,0,0,0,0,0,0,0.8768,0.8673,0.8899,0.8893,0.8893,0.8999,0.9001,0.9003,0.8962,0.8959,0.8955,0.8952,0.9053,0.906,0.9067,0.9185,0,0,0.909,0.9093,0,0,0,0,0,0,0,0,0.8762,0.8776,0.8893,0.8894,0.8894,0.8964,0.8957,0.9064,0.8963,0.8936,0.8954,0.895,0.9029,0.9038,0.9064,0.9189,0.9194,0.9091,0.9095,0.9098,0.91,0,0,0,0,0,0,0,0.8755,0.8772,0.8939,0.8894,0.8895,0.8884,0.8894,0.8977,0.9001,0.8938,0.8935,0.8948,0.9028,0.9057,0.9067,0.9195,0.909,0.9097,0.9102,0.9104,0.9415,0.9418,0,0,0,0,0,0,0.8748,0.8766,0.8936,0.8942,0.8818,0.8891,0.8903,0.8945,0.9,0.9005,0.8951,0.8946,0.9046,0.9058,0.907,0.9206,0.9098,0.9105,0.9109,0.9411,0.9416,0.942,0,0,0,0,0,0,0.8743,0.8764,0.8932,0.8853,0.8874,0.8899,0.8947,0.8949,0.8978,0.901,0.9014,0.8976,0.9044,0.906,0.9155,0.9209,0.9109,0.9115,0.9407,0.9412,0.9418,0.9483,0,0,0,0,0,0,0.8737,0.8762,0.8809,0.8855,0.8878,0.9017,0.8951,0.8954,0.8991,0.8985,0.9035,0.9039,0.9042,0.9144,0.9162,0.9218,0.9121,0.9402,0.9409,0.9416,0.9476,0.949,0.9502,0,0,0,0,0,0.8729,0.8824,0.8811,0.8832,0.8937,0.902,0.9033,0.9035,0.8996,0.9041,0.906,0.9038,0.9201,0.9154,0.9175,0.9233,0.9398,0.9407,0.9415,0.947,0.9487,0.9502,0,0,0,0,0,0,0.8785,0.883,0.8816,0.893,0.8971,0.9013,0.9071,0.9054,0.9108,0.91,0.91,0.9111,0.9208,0.9231,0.9178,0.9346,0.9293,0.9306,0.9328,0.9345,0.9357,0.9349,0.9127,0,0,0,0,0,0.8811,0.8875,0.8911,0.9008,0.9029,0.9046,0.9083,0.908,0.9123,0.914,0.9167,0.9209,0.9268,0.9308,0.9366,0.9479,0.9486,0.9529,0.9542,0.9553,0.9563,0.9619,0.9637,0.9448,0.9448,0.9447,0,0,0.8864,0.8897,0.8938,0.9019,0.9051,0.9116,0.9061,0.9134,0.9181,0.9151,0.9241,0.9262,0.9308,0.9412,0.9459,0.9433,0.9617,0.9563,0.9572,0.9576,0.9629,0.9647,0.9663,0.9453,0.9452,0.9452,0,0,0.8994,0.9027,0.9108,0.914,0.9188,0.9198,0.9218,0.9261,0.9273,0.9364,0.9341,0.9397,0.9502,0.9534,0.9564,0.97,0.9679,0.9719,0.9787,0.9841,0.9856,0.9869,0.9913,0.993,0.973,0.973,0.973,0,0.9054,0.9152,0.9152,0.9224,0.9259,0.9234,0.9314,0.9345,0.941,0.9433,0.9404,0.9531,0.9561,0.9668,0.9701,0.9728,0.9747,0.9713,0.9854,0.9867,0.988,0.9921,0.9939,0.9734,0.9734,0.9733,0.9733,0,0.9221,0.9289,0.9348,0.9409,0.945,0.9527,0.9536,0.9578,0.9571,0.9583,0.9673,0.9707,0.9768,0.9794,0.9789,0.99,0.9882,0.9854,0.98,0.9902,0.9941,0.9957,0.974,0.9739,0.9738,0.9737,0,0,0.9391,0.9447,0.9469,0.9493,0.9542,0.9594,0.9667,0.9726,0.976,0.9804,0.9863,0.995,0.9922,0.9956,0.9954,1.0003,1.0102,0.9968,0.9969,0.9988,1.022,1.0238,1.0257,1.0089,1.0092,1.0095,1.0215,0,0.952,0.9649,0.9649,0.9766,0.9825,0.98,0.9863,0.9899,0.9912,0.9963,0.9976,1.0036,0.9998,1.0017,1.0064,1.008,1.0148,1.0072,1.0141,1.0143,1.0127,1.0279,1.03,1.0411,1.0231,1.0233,1.0235,0,0.969,0.9737,0.986,0.9895,0.992,0.9977,1.0028,1.0079,1.0117,1.0122,1.0158,1.0147,1.0218,1.0163,1.0259,1.0207,1.0235,1.0246,1.0251,1.0255,1.0193,1.0283,1.0447,1.0463,1.026,1.0258,1.0257,0,0.9795,0.989,0.9974,0.9997,1.0042,1.0081,1.0101,1.0136,1.0169,1.0214,1.0235,1.0288,1.0316,1.0356,1.0358,1.0319,1.0453,1.04,1.0456,1.0456,1.0484,1.0482,1.0651,1.0508,1.0508,1.0507,1.0507,0,0.9939,1.0014,1.0021,1.0073,1.0154,1.0153,1.0233,1.025,1.028,1.0332,1.0315,1.0364,1.0365,1.0415,1.0417,1.0493,1.0507,1.0511,1.051,1.0511,1.0509,1.0527,1.0518,1.0512,1.0511,1.051,1.0509,0,1.007,1.0079,1.0168,1.0201,1.0211,1.0269,1.0297,1.0344,1.0354,1.042,1.0435,1.045,1.0507,1.0513,1.0581,1.0582,1.0672,1.0665,1.0658,1.0656,1.071,1.0703,1.0894,1.0917,1.0762,1.0764,1.0765,0,1.0159,1.0216,1.0254,1.0287,1.0309,1.0364,1.0397,1.0396,1.0431,1.0476,1.0517,1.0572,1.0615,1.0707,1.0722,1.0772,1.0763,1.0827,1.0771,1.0768,1.0759,1.0754,1.0757,1.0837,1.0838,1.084,1.0841,0,1.0315,1.0315,1.0364,1.0413,1.0453,1.0492,1.0528,1.0556,1.0559,1.0599,1.0656,1.069,1.0756,1.0809,1.0857,1.0876,1.0858,1.0858,1.0873,1.0873,1.0865,1.0865,1.0684,1.0854,1.0852,1.0851,1.0851,1.085,1.0425,1.0472,1.0505,1.0558,1.0585,1.0618,1.0662,1.0676,1.0724,1.0777,1.0773,1.0835,1.0867,1.0929,1.0951,1.0998,1.0977,1.1,1.1005,1.1009,1.1012,1.086,1.1007,1.1007,1.1007,1.1006,1.1006,0,1.0576,1.0595,1.0644,1.0694,1.0735,1.0714,1.0752,1.0787,1.0841,1.0873,1.0915,1.0978,1.1028,1.1046,1.1095,1.1128,1.112,1.114,1.1136,1.114,1.1031,1.1011,1.1145,1.1145,1.1145,1.1145,1.1145,1.1145,1.0659,1.0736,1.0739,1.0827,1.0845,1.0905,1.0927,1.0956,1.098,1.1051,1.1092,1.1104,1.1129,1.1178,1.1222,1.1225,1.1242,1.1265,1.1265,1.1162,1.1148,1.1135,1.1116,1.1269,1.127,1.1369,1.137,1.137]}]]